Location: Baia Mare
(47.6567°N, 23.5850°E)
Time: 15:41:38
(UTC+03:00)

ISS - Pass Details

Date: 22 September 2015
Orbit: 414 x 420 km, 51.6° (Epoch: 06 July)

Event Time Altitude Azimuth Distance (km) Brightness Sun altitude
Exits shadow 04:23:51 14° 102° (ESE) 1,282 -0.8 -27.3°
Drops below altitude 10° 04:24:39 10° 91° (E) 1,500 -0.3 -27.2°
Enters shadow 05:23:08 -68° 244° (WSW) 12,424 3.6 -18.6°
Maximum altitude 06:00:29 85° 335° (NNW) 428 -3.8 -12.7°
